Lexington Weather

Lexington, Massachusetts, USA

76°F
9/22/2021 12:41pm 
  • Lexington Conditions: Overcast
  • Temperature: 75.6°F / 24.2°CWarmer 0.8°F than last hour.
  • Dew Point: 68.9°FDecreased 0.4°Fsince last hour.
  • Relative Humidity: 80%Decreased 3.0% since last hour.
  • Wind: Wind from SSW SSW 4 mph, 10-min avg: 3 mph, gust: 12 mph
  • Barometer: 30.11 inFalling 0.02  inHg/hr Falling Slowly
  • Visibility: 10 miles
  • Rain Today: 0.00 in
  •   

Regional Weather Roundup
for Boston / Norton, MA

        
000
ASUS41 KBOX 210304
RWRBOX

REGIONAL WEATHER ROUNDUP
NATIONAL WEATHER SERVICE BOSTON/NORTON MA
1100 PM EDT MON SEP 20 2021

NOTE:  "FAIR" INDICATES FEW OR NO CLOUDS BELOW 12,000 FEET WITH NO 
SIGNIFICANT WEATHER AND/OR OBSTRUCTIONS TO VISIBILITY.

MAZALL-210400-
EASTERN MASSACHUSETTS
  
CITY           SKY/WX    TMP DP  RH WIND       PRES   REMARKS
BOSTON         PTCLDY    62  56  80 S6        30.42R                  
BEVERLY        CLEAR     61  55  81 S6        30.41R                  
LAWRENCE       CLEAR     57  54  89 CALM      30.44R                  
BEDFORD        CLEAR     53  52  96 CALM      30.41R                  
BLUE HILL      NOT AVBL                                               
NORWOOD        CLEAR     51  48  89 CALM      30.41S                  
MARSHFIELD     CLEAR     61  50  67 SE6       30.41S                  
PLYMOUTH       CLEAR     55  52  89 CALM      30.42S                  
TAUNTON        CLEAR     50  48  93 CALM      30.41S                  
NEW BEDFORD    CLEAR     52  51  97 CALM      30.40S                  
$$

MAZALL-210400-
CAPE COD AND THE ISLANDS
  
CITY           SKY/WX    TMP DP  RH WIND       PRES   REMARKS
FALMOUTH       NOT AVBL                                               
HYANNIS        CLEAR     52  49  89 CALM      30.41S                  
CHATHAM        CLEAR     61  54  77 E6        30.43R                  
PROVINCETOWN   CLEAR     53  50  89 E5        30.43S                  
NANTUCKET      CLEAR     59  52  77 E7        30.41S                  
MARTHAS VNYRD  CLEAR     48  46  93 CALM      30.41S                  
$$
 
MAZALL-210400-
CENTRAL AND WESTERN MASSACHUSETTS
  
CITY           SKY/WX    TMP DP  RH WIND       PRES   REMARKS
WORCESTER      CLEAR     58  52  80 SE7       30.42S                  
FITCHBURG      CLEAR     55  53  93 CALM      30.42S                  
ORANGE         CLEAR     56  54  93 CALM      30.42R                  
SPRINGFIELD    PTCLDY    57  55  92 CALM      30.39R                  
WESTFIELD      CLEAR     58  56  93 CALM      30.39R                  
NORTH ADAMS    CLEAR     59  55  87 VRB3      30.37R                  
PITTSFIELD     CLEAR     59  54  83 S7        30.37S                  
$$
 
RIZALL-210400-
RHODE ISLAND
  
CITY           SKY/WX    TMP DP  RH WIND       PRES   REMARKS
PROVIDENCE     CLEAR     61  54  77 CALM      30.41S                  
NEWPORT        CLEAR     58  53  84 CALM      30.40S                  
SMITHFIELD     CLEAR     55  53  93 CALM      30.42R                  
WESTERLY       CLEAR     56  55  97 CALM      30.40S                  
$$
 
CTZALL-210400-
CONNECTICUT
  
CITY           SKY/WX    TMP DP  RH WIND       PRES   REMARKS
BRADLEY INTL   PTCLDY    58  54  86 S6        30.40R                  
HARTFORD       CLEAR     59  54  83 CALM      30.39S                  
BRIDGEPORT     CLEAR     67  55  65 SE7       30.38S                  
DANBURY        CLEAR     59  55  87 CALM      30.40R                  
GROTON         CLEAR     64  54  69 E7        30.39S                  
NEW HAVEN      CLEAR     68  56  65 SE9       30.39R                  
CHESTER        FAIR      55  55 100 CALM      30.40S                  
MERIDEN        CLEAR     56  53  90 CALM      30.39S                  
WILLIMANTIC    CLEAR     56  54  93 CALM      30.41R                  
OXFORD         CLEAR     58  54  86 SE5       30.41R                  
$$

MEZ002-015-021-024-NHZ003-005-008-011-012-014-VTZ005-008-210400-
NORTHERN NEW ENGLAND
  
CITY           SKY/WX    TMP DP  RH WIND       PRES   REMARKS
PORTLAND ME    CLEAR     55  54  96 CALM      30.43R                  
BANGOR ME      CLEAR     55  52  89 S5        30.42F                  
CONCORD NH     CLEAR     54  51  90 CALM      30.42R                  
MANCHESTER NH  CLEAR     59  52  77 E3        30.40S                  
NASHUA NH      CLEAR     54  54 100 CALM      30.42S                  
PORTSMOUTH NH  PTCLDY    56  53  88 CALM      30.43R                  
JAFFREY NH     CLEAR     55  53  93 CALM      30.42R                  
KEENE NH       CLEAR     58  53  84 S3        30.41R                  
BURLINGTON VT  PTCLDY    62  55  77 SE5       30.30R                  
MT. WASHINGTON MOCLDY    54  19  26 S12         N/A                   
$$

NYZ052-076-210400-
EASTERN NEW YORK
  
CITY           SKY/WX    TMP DP  RH WIND       PRES   REMARKS
ALBANY         PTCLDY    61  57  87 SE8       30.34R                  
NEW YORK CITY  PTCLDY    68  55  63 SE6       30.36S                  
$$
 
ANZALL-210400-
MARINE OBSERVATIONS
  
STATION/POSITION TIME  TEMP    WIND        PRES    VSBY  WAVE
                       AIR SEA DIR/SP/G                  HT/PER
                 (UTC) (F)     (DEG/KT/KT) (MB)    (MI)  (FT/S)
BOSTON BUOY      0240      66  130/ 12/ 14 1030.1R
BUZZARDS BAY     0200          110/ 15/ 15 1030.2F
NANTUCKET SOUND  0240   65 72  100/ 10/ 14 1029.7R
MASS BAY-STELLWA 0204   64     150/ 12/ 14 1029.4F  1 7/8  3/ 8
ISLE OF SHOALS   0200   64     140/ 15/ 16 1029.2R
S OF BLOCK IS    0226      70                N/A           3/10
$$

......................KEY.........................
  SKY/WX - SKY CONDITION/PRESENT WEATHER
  TMP    - TEMPERATURE IN FAHRENHEIT
  DWPT   - DEWPOINT IN FAHRENHEIT
  RH     - RELATIVE HUMIDITY IN PERCENT
  WIND   - DIRECTION AND SPEED IN MPH
  PRES   - MEAN SEA LEVEL PRESSURE IN INCHES OF HG
  WCI    - WIND CHILL INDEX
  VSB    - VISIBILITY IN MILES
  HX     - HEAT INDEX
  TC     - TEMPERATURE IN CELSIUS
  VRB    - VARIABLE WIND DIRECTION
  N/A    - NOT AVAILABLE
  
      

Other recent Regional Weather Roundups

Wed Sep 22, 12:05pm

Wed Sep 22, 11:04am

Wed Sep 22, 10:04am

Wed Sep 22, 9:04am

Wed Sep 22, 8:04am

Wed Sep 22, 7:04am

Wed Sep 22, 6:04am

Wed Sep 22, 5:04am

Wed Sep 22, 4:04am

Wed Sep 22, 3:04am

Wed Sep 22, 2:04am

Wed Sep 22, 1:04am

Wed Sep 22, 12:04am

Tue Sep 21, 11:04pm

Tue Sep 21, 10:04pm

Tue Sep 21, 9:04pm

Tue Sep 21, 8:04pm

Tue Sep 21, 7:04pm

Tue Sep 21, 6:04pm

Tue Sep 21, 5:04pm

Tue Sep 21, 4:04pm

Tue Sep 21, 3:04pm

Tue Sep 21, 2:04pm

Tue Sep 21, 1:04pm

Tue Sep 21, 12:04pm

Tue Sep 21, 11:04am

Tue Sep 21, 10:04am

Tue Sep 21, 9:04am

Tue Sep 21, 8:04am

Tue Sep 21, 7:04am

Tue Sep 21, 6:04am

Tue Sep 21, 5:04am

Tue Sep 21, 4:04am

Tue Sep 21, 3:04am

Tue Sep 21, 2:04am

Tue Sep 21, 1:04am

Tue Sep 21, 12:04am

Mon Sep 20, 10:04pm

Mon Sep 20, 9:04pm

Mon Sep 20, 8:04pm

Mon Sep 20, 7:04pm

Mon Sep 20, 6:04pm

Mon Sep 20, 5:04pm

Mon Sep 20, 4:04pm

Mon Sep 20, 3:04pm

Mon Sep 20, 2:04pm

Mon Sep 20, 1:04pm

Mon Sep 20, 12:04pm

Mon Sep 20, 11:04am

Mon Sep 20, 10:04am

Mon Sep 20, 9:04am

Mon Sep 20, 7:04am

Mon Sep 20, 6:04am

Mon Sep 20, 5:04am

Mon Sep 20, 4:04am

Mon Sep 20, 3:04am

Mon Sep 20, 2:04am

Mon Sep 20, 1:04am

Mon Sep 20, 12:04am

Sun Sep 19, 11:04pm

Sun Sep 19, 10:04pm

Sun Sep 19, 9:04pm

Sun Sep 19, 8:04pm

Sun Sep 19, 7:04pm

Sun Sep 19, 6:04pm

Sun Sep 19, 5:04pm

Sun Sep 19, 4:04pm

Sun Sep 19, 3:04pm

Sun Sep 19, 2:05pm

Sun Sep 19, 1:04pm

Sun Sep 19, 12:04pm

Sun Sep 19, 11:04am

Sun Sep 19, 10:05am

Sun Sep 19, 9:04am

Sun Sep 19, 8:04am

Sun Sep 19, 7:04am

Sun Sep 19, 6:04am

Sun Sep 19, 5:04am

Sun Sep 19, 4:04am

Sun Sep 19, 3:04am

Sun Sep 19, 2:04am

Sun Sep 19, 1:04am

Sun Sep 19, 12:04am

Sat Sep 18, 11:05pm

Sat Sep 18, 10:04pm

Sat Sep 18, 9:04pm

Sat Sep 18, 8:04pm

Sat Sep 18, 7:04pm

Sat Sep 18, 6:04pm

Sat Sep 18, 5:04pm

Sat Sep 18, 4:04pm

Sat Sep 18, 3:04pm

Sat Sep 18, 2:04pm

Sat Sep 18, 1:04pm

Sat Sep 18, 12:04pm

Sat Sep 18, 11:04am

Sat Sep 18, 10:04am

Sat Sep 18, 9:04am

Sat Sep 18, 8:04am

Sat Sep 18, 7:04am

Sat Sep 18, 6:04am

Sat Sep 18, 5:04am

Sat Sep 18, 4:04am

Sat Sep 18, 3:04am

Sat Sep 18, 2:04am

Sat Sep 18, 1:04am

Sat Sep 18, 12:04am

Fri Sep 17, 11:04pm

Fri Sep 17, 10:04pm

Fri Sep 17, 9:04pm

Fri Sep 17, 8:04pm

Fri Sep 17, 7:04pm

Fri Sep 17, 6:04pm

Fri Sep 17, 5:04pm

Fri Sep 17, 4:04pm

Fri Sep 17, 3:04pm

Fri Sep 17, 2:04pm

Fri Sep 17, 1:04pm

Fri Sep 17, 12:05pm

Fri Sep 17, 11:04am

Fri Sep 17, 10:04am

Fri Sep 17, 9:04am

Fri Sep 17, 8:04am

Fri Sep 17, 7:04am

Fri Sep 17, 6:04am

Fri Sep 17, 5:04am

Fri Sep 17, 4:04am

Fri Sep 17, 3:04am

Fri Sep 17, 2:04am

Fri Sep 17, 1:04am

Fri Sep 17, 12:04am

Thu Sep 16, 11:04pm

Thu Sep 16, 10:04pm

Thu Sep 16, 9:04pm

Thu Sep 16, 8:04pm

Thu Sep 16, 7:04pm

Thu Sep 16, 6:04pm

Thu Sep 16, 5:04pm

Thu Sep 16, 4:04pm

Thu Sep 16, 3:04pm

Thu Sep 16, 2:04pm

Thu Sep 16, 1:05pm

Thu Sep 16, 12:04pm

Thu Sep 16, 11:05am

Thu Sep 16, 10:05am

Thu Sep 16, 9:04am

Thu Sep 16, 8:04am

Thu Sep 16, 7:04am

Thu Sep 16, 6:04am

Thu Sep 16, 5:04am

Thu Sep 16, 4:04am

Thu Sep 16, 3:04am

Thu Sep 16, 2:04am

Thu Sep 16, 1:04am

Thu Sep 16, 12:04am

Wed Sep 15, 11:04pm

Wed Sep 15, 10:04pm

Wed Sep 15, 9:04pm

Wed Sep 15, 8:04pm

Wed Sep 15, 7:04pm

Wed Sep 15, 6:04pm

Wed Sep 15, 5:05pm

Wed Sep 15, 4:04pm

Wed Sep 15, 3:04pm

Wed Sep 15, 2:04pm

Wed Sep 15, 1:04pm

Meta data:

ID: e70ab875-160c-479f-bfb4-f727e1c22a41
Link: https://api.weather.gov/products/e70ab875-160c-479f-bfb4-f727e1c22a41